Weather History for KDXX - June, 2012

Change the Weather History Date:

Saturday, June 23, 2012

  Actual Average (KAQP) Record (KAQP)
Temperature  
Mean Temperature 78 °F -  
Max Temperature 86 °F 77 °F 93 °F (1997)
Min Temperature 69 °F 55 °F 35 °F (2007)
Cooling Degree Days 12    
Growing Degree Days 28 (Base 50)    
Moisture  
Dew Point 65 °F    
Average Humidity 67    
Maximum Humidity 88    
Minimum Humidity 54    
Precipitation  
Precipitation 0.07 in - - ()
Sea Level Pressure  
Sea Level Pressure 29.85 in    
Wind  
Wind Speed 9 mph (SSE)    
Max Wind Speed 17 mph    
Max Gust Speed 20 mph    
Visibility 10 miles    
Events Rain , Thunderstorm    
Averages and records for this station are not official NWS values.
T = Trace of Precipitation, MM = Missing Value Source: NWS Daily Summary

Daily Weather History Graph

Daily Weather History Graph

Search for Another Location

Airport or City:

Trip Planner

Search our weather history database for the weather conditions in past years. The results will help you decide how hot, cold, wet, or windy it might be!

Date:

Astronomy

Jun. 23, 2012 Rise Set
Actual Time 5:38 AM CDT 9:15 PM CDT
Civil Twilight 5:01 AM CDT 9:52 PM CDT
Nautical Twilight 4:11 AM CDT 10:42 PM CDT
Astronomical Twilight 3:05 AM CDT 11:48 PM CDT
Moon 9:52 AM CDT (6/23) 11:31 PM CDT (6/23)
Length of Visible Light 16h 51m
Length of Day
15h 36m
Waxing Crescent, 16% of the Moon is Illuminated
Jun 23
Waxing Crescent
Jun 26
First Quarter
Jul 3
Full
Jul 10
Last Quarter
Jul 18
New

Hourly Weather History & Observations

Time (CDT) Temp. Heat Index Dew Point Humidity Pressure Visibility Wind Dir Wind Speed Gust Speed Precip Events Conditions
12:14 AM 71.6 °F - 62.6 °F 73% 29.92 in 10.0 mi ESE 6.9 mph - N/A   Clear
12:34 AM 69.8 °F - 62.6 °F 78% 29.91 in 10.0 mi East 6.9 mph - N/A   Clear
12:53 AM 71.6 °F - 62.6 °F 73% 29.92 in 10.0 mi ESE 8.1 mph - N/A   Clear
1:14 AM 71.6 °F - 62.6 °F 73% 29.91 in 10.0 mi ESE 9.2 mph - N/A   Clear
1:34 AM 71.6 °F - 62.6 °F 73% 29.89 in 10.0 mi SSE 8.1 mph - N/A   Clear
1:53 AM 71.6 °F - 60.8 °F 69% 29.92 in 10.0 mi SE 6.9 mph - N/A   Clear
2:14 AM 69.8 °F - 60.8 °F 73% 29.90 in 10.0 mi SSE 9.2 mph - N/A   Clear
2:34 AM 71.6 °F - 60.8 °F 69% 29.88 in 10.0 mi SSE 11.5 mph - N/A   Clear
2:53 AM 71.6 °F - 60.8 °F 69% 29.86 in 10.0 mi SSE 11.5 mph - N/A   Scattered Clouds
3:14 AM 71.6 °F - 60.8 °F 69% 29.87 in 10.0 mi SSE 11.5 mph - N/A Thunderstorm Mostly Cloudy
3:34 AM 71.6 °F - 62.6 °F 73% 29.86 in 10.0 mi SSE 8.1 mph - 0.01 in Rain Rain
3:53 AM 69.8 °F - 62.6 °F 78% 29.85 in 10.0 mi South 16.1 mph 19.6 mph 0.06 in Rain Rain
4:14 AM 69.8 °F - 62.6 °F 78% 29.84 in 10.0 mi South 13.8 mph - 0.01 in Rain Light Rain
4:34 AM 69.8 °F - 62.6 °F 78% 29.85 in 10.0 mi South 17.3 mph - 0.01 in Rain Light Rain
4:53 AM 69.8 °F - 62.6 °F 78% 29.85 in 10.0 mi South 13.8 mph 19.6 mph 0.01 in   Overcast
5:14 AM 71.6 °F - 62.6 °F 73% 29.84 in 10.0 mi South 15.0 mph - N/A Rain Light Rain
5:34 AM 71.6 °F - 60.8 °F 69% 29.83 in 10.0 mi South 13.8 mph - N/A   Clear
5:53 AM 69.8 °F - 60.8 °F 73% 29.84 in 10.0 mi South 13.8 mph - N/A   Clear
6:14 AM 71.6 °F - 60.8 °F 69% 29.83 in 10.0 mi South 11.5 mph - N/A   Clear
6:34 AM 71.6 °F - 60.8 °F 69% 29.85 in 10.0 mi South 9.2 mph - N/A   Scattered Clouds
6:53 AM 71.6 °F - 60.8 °F 69% 29.84 in 10.0 mi South 11.5 mph - N/A   Scattered Clouds
7:14 AM 71.6 °F - 60.8 °F 69% 29.84 in 10.0 mi South 9.2 mph - N/A   Scattered Clouds
7:34 AM 69.8 °F - 60.8 °F 73% 29.84 in 10.0 mi SSE 6.9 mph - N/A   Clear
7:53 AM 71.6 °F - 60.8 °F 69% 29.86 in 10.0 mi SSE 4.6 mph - N/A   Scattered Clouds
8:14 AM 71.6 °F - 60.8 °F 69% 29.86 in 10.0 mi SSE 6.9 mph - N/A   Scattered Clouds
8:34 AM 71.6 °F - 60.8 °F 69% 29.86 in 10.0 mi ESE 4.6 mph - N/A   Scattered Clouds
8:53 AM 71.6 °F - 60.8 °F 69% 29.86 in 10.0 mi East 5.8 mph - N/A   Mostly Cloudy
9:14 AM 71.6 °F - 60.8 °F 69% 29.86 in 10.0 mi East 8.1 mph - N/A   Scattered Clouds
9:34 AM 73.4 °F - 60.8 °F 65% 29.86 in 10.0 mi ESE 9.2 mph - N/A   Clear
9:53 AM 75.2 °F - 60.8 °F 61% 29.85 in 10.0 mi ESE 10.4 mph - N/A   Clear
10:14 AM 75.2 °F - 60.8 °F 61% 29.85 in 10.0 mi SE 12.7 mph - N/A   Clear
10:34 AM 77.0 °F - 60.8 °F 57% 29.85 in 10.0 mi SE 11.5 mph 17.3 mph N/A   Clear
10:53 AM 78.8 °F - 60.8 °F 54% 29.85 in 10.0 mi SE 13.8 mph - N/A   Clear
11:14 AM 78.8 °F - 62.6 °F 57% 29.84 in 10.0 mi SSE 12.7 mph 19.6 mph N/A   Clear
11:34 AM 80.6 °F 81.8 °F 62.6 °F 54% 29.84 in 10.0 mi SSE 10.4 mph - N/A   Clear
11:53 AM 80.6 °F 82.3 °F 64.4 °F 58% 29.84 in 10.0 mi South 13.8 mph 17.3 mph N/A   Clear
12:14 PM 80.6 °F 82.3 °F 64.4 °F 58% 29.83 in 10.0 mi South 10.4 mph 16.1 mph N/A   Clear
12:34 PM 80.6 °F 82.7 °F 66.2 °F 61% 29.83 in 10.0 mi South 9.2 mph 16.1 mph N/A   Clear
12:53 PM 82.4 °F 84.6 °F 66.2 °F 58% 29.82 in 10.0 mi SSE 8.1 mph - N/A   Clear
1:14 PM 82.4 °F 84.6 °F 66.2 °F 58% 29.82 in 10.0 mi South 11.5 mph 16.1 mph N/A   Clear
1:34 PM 82.4 °F 84.6 °F 66.2 °F 58% 29.83 in 10.0 mi South 9.2 mph - N/A   Clear
1:53 PM 84.2 °F 86.6 °F 66.2 °F 55% 29.83 in 10.0 mi South 10.4 mph - N/A   Clear
2:14 PM 84.2 °F 86.6 °F 66.2 °F 55% 29.82 in 10.0 mi South 8.1 mph - N/A   Clear
2:34 PM 84.2 °F 86.6 °F 66.2 °F 55% 29.82 in 10.0 mi South 9.2 mph - N/A   Scattered Clouds
2:53 PM 84.2 °F 87.3 °F 68.0 °F 58% 29.81 in 10.0 mi South 10.4 mph 16.1 mph N/A   Mostly Cloudy
3:14 PM 84.2 °F 86.6 °F 66.2 °F 55% 29.81 in 10.0 mi South 8.1 mph - N/A   Mostly Cloudy
3:34 PM 84.2 °F 86.6 °F 66.2 °F 55% 29.81 in 10.0 mi South 10.4 mph - N/A   Scattered Clouds
3:53 PM 84.2 °F 87.3 °F 68.0 °F 58% 29.81 in 10.0 mi SSE 11.5 mph - N/A   Mostly Cloudy
4:14 PM 84.2 °F 87.3 °F 68.0 °F 58% 29.80 in 10.0 mi SSE 10.4 mph - N/A   Scattered Clouds
4:34 PM 86.0 °F 89.4 °F 68.0 °F 55% 29.80 in 10.0 mi South 10.4 mph - N/A   Scattered Clouds
4:53 PM 84.2 °F 86.6 °F 66.2 °F 55% 29.80 in 10.0 mi South 8.1 mph - N/A   Scattered Clouds
5:14 PM 84.2 °F 86.6 °F 66.2 °F 55% 29.81 in 10.0 mi South 8.1 mph - N/A   Scattered Clouds
5:34 PM 84.2 °F 87.3 °F 68.0 °F 58% 29.82 in 10.0 mi South 9.2 mph - N/A   Mostly Cloudy
5:53 PM 84.2 °F 87.3 °F 68.0 °F 58% 29.82 in 10.0 mi South 6.9 mph - N/A   Mostly Cloudy
6:14 PM 84.2 °F 88.4 °F 69.8 °F 62% 29.81 in 10.0 mi South 8.1 mph - N/A   Mostly Cloudy
6:34 PM 84.2 °F 88.4 °F 69.8 °F 62% 29.81 in 10.0 mi SSE 6.9 mph - N/A   Scattered Clouds
6:53 PM 84.2 °F 87.3 °F 68.0 °F 58% 29.81 in 10.0 mi SSE 8.1 mph - N/A   Clear
7:14 PM 84.2 °F 88.4 °F 69.8 °F 62% 29.82 in 10.0 mi SE 5.8 mph - N/A   Clear
7:34 PM 82.4 °F 86.3 °F 69.8 °F 66% 29.83 in 10.0 mi SE 5.8 mph - N/A   Clear
7:53 PM 82.4 °F 87.2 °F 71.6 °F 70% 29.84 in 10.0 mi ESE 4.6 mph - N/A   Scattered Clouds
8:14 PM 82.4 °F 87.2 °F 71.6 °F 70% 29.85 in 10.0 mi ESE 5.8 mph - N/A   Clear
8:33 PM 80.6 °F 84.6 °F 71.6 °F 74% 29.85 in 10.0 mi ESE 5.8 mph - N/A   Clear
8:53 PM 80.6 °F 83.9 °F 69.8 °F 70% 29.85 in 10.0 mi SE 6.9 mph - N/A   Clear
9:14 PM 78.8 °F - 69.8 °F 74% 29.85 in 10.0 mi ESE 8.1 mph - N/A   Clear
9:33 PM 78.8 °F - 69.8 °F 74% 29.85 in 10.0 mi ESE 6.9 mph - N/A   Clear
9:54 PM 77.0 °F - 69.8 °F 78% 29.85 in 10.0 mi SE 6.9 mph - N/A   Clear
10:14 PM 75.2 °F - 69.8 °F 83% 29.86 in 10.0 mi ESE 5.8 mph - N/A   Clear
10:33 PM 75.2 °F - 69.8 °F 83% 29.87 in 10.0 mi SE 6.9 mph - N/A   Clear
10:54 PM 75.2 °F - 69.8 °F 83% 29.86 in 10.0 mi SE 6.9 mph - N/A   Clear
11:14 PM 75.2 °F - 69.8 °F 83% 29.87 in 10.0 mi SSE 6.9 mph - N/A   Clear
11:33 PM 73.4 °F - 69.8 °F 88% 29.87 in 10.0 mi SSE 4.6 mph - N/A   Clear
11:54 PM 73.4 °F - 69.8 °F 88% 29.88 in 10.0 mi SSE 4.6 mph - N/A   Clear